,,,PA_Meas_PMT16A,,PR_Meas_QMR101_102,,RH_Meas_QMH101,,SR_Meas_QMS101,,TA_Meas_QMH101,,GenWind,,GenWind,
date,time,status,PA,status,PR,status,RH,status,SR,status,TA,status,DirAvg,status,SpdAvg,
2012-03-18, 00:00:04,VALID,1000.48,VALID,0,VALID,91.3494,VALID,0,VALID,24.111,VALID,64,VALID,0.730078,
2012-03-18, 00:01:04,VALID,1000.48,VALID,0,VALID,91.2197,VALID,0,VALID,24.0915,VALID,64,VALID,0.775781,
2012-03-18, 00:02:04,VALID,1000.49,VALID,0,VALID,91.1587,VALID,0,VALID,24.0915,VALID,64,VALID,0.588281,
2012-03-18, 00:03:04,VALID,1000.43,VALID,0,VALID,91.0977,VALID,0,VALID,24.0915,VALID,64,VALID,0.661719,
2012-03-18, 00:04:04,VALID,1000.43,VALID,0,VALID,91.1053,VALID,0,VALID,24.072,VALID,64,VALID,0.627344,
2012-03-18, 00:05:04,VALID,1000.36,VALID,0,VALID,91.1663,VALID,0,VALID,24.072,VALID,40,VALID,0.785937,
2012-03-18, 00:06:04,VALID,1000.36,VALID,0,VALID,91.1968,VALID,0,VALID,24.0311,VALID,37,VALID,0.855469,
2012-03-18, 00:07:04,VALID,1000.34,VALID,0,VALID,91.3189,VALID,0,VALID,24.0311,VALID,27,VALID,0.889453,
2012-03-18, 00:08:04,VALID,1000.29,VALID,0,VALID,91.5478,VALID,0,VALID,24.0116,VALID,19,VALID,0.823828,
2012-03-18, 00:09:04,VALID,1000.28,VALID,0,VALID,91.7233,VALID,0,VALID,24.0525,VALID,18,VALID,0.627734,
2012-03-18, 00:10:04,VALID,1000.24,VALID,0,VALID,91.7767,VALID,0,VALID,24.0525,VALID,18,VALID,0.621875,
2012-03-18, 00:11:04,VALID,1000.21,VALID,0,VALID,91.792,VALID,0,VALID,24.0525,VALID,18,VALID,0.421094,
2012-03-18, 00:12:04,VALID,1000.19,VALID,0,VALID,91.7538,VALID,0,VALID,24.0525,VALID,18,VALID,0.328906,
2012-03-18, 00:13:04,VALID,1000.16,VALID,0,VALID,91.7538,VALID,0,VALID,24.0525,VALID,18,VALID,0.257813,
2012-03-18, 00:14:04,VALID,1000.18,VALID,0,VALID,91.7462,VALID,0,VALID,24.0329,VALID,18,VALID,0.300391,
2012-03-18, 00:15:04,VALID,1000.16,VALID,0,VALID,91.792,VALID,0,VALID,24.0329,VALID,18,VALID,0.169531,
2012-03-18, 00:16:04,VALID,1000.16,VALID,0,VALID,91.8301,VALID,0,VALID,24.0134,VALID,18,VALID,0.207031,
2012-03-18, 00:17:04,VALID,1000.16,VALID,0,VALID,91.853,VALID,0,VALID,24.0134,VALID,18,VALID,0.209766,
2012-03-18, 00:18:04,VALID,1000.2,VALID,0,VALID,91.8377,VALID,0,VALID,23.9939,VALID,18,VALID,0.246484,
2012-03-18, 00:19:04,VALID,1000.22,VALID,0,VALID,91.7996,VALID,0,VALID,23.9744,VALID,18,VALID,0.207813,
2012-03-18, 00:20:04,VALID,1000.24,VALID,0,VALID,91.8072,VALID,0,VALID,23.9549,VALID,18,VALID,0.366797,
2012-03-18, 00:21:04,VALID,1000.22,VALID,0,VALID,91.9293,VALID,0,VALID,23.9549,VALID,18,VALID,0.426562,
2012-03-18, 00:22:04,VALID,1000.19,VALID,0,VALID,92.059,VALID,0,VALID,23.9744,VALID,18,VALID,0.450391,
2012-03-18, 00:23:04,VALID,1000.17,VALID,0,VALID,92.12,VALID,0,VALID,23.9531,VALID,18,VALID,0.590625,
2012-03-18, 00:24:04,VALID,1000.2,VALID,0,VALID,92.0895,VALID,0,VALID,23.9531,VALID,48,VALID,0.61875,
2012-03-18, 00:25:04,VALID,1000.21,VALID,0,VALID,91.9445,VALID,0,VALID,23.9531,VALID,48,VALID,0.598828,
2012-03-18, 00:26:04,VALID,1000.19,VALID,0,VALID,91.8148,VALID,0,VALID,23.9726,VALID,48,VALID,0.522656,
2012-03-18, 00:27:04,VALID,1000.18,VALID,0,VALID,91.7309,VALID,0,VALID,23.9531,VALID,48,VALID,0.396484,
2012-03-18, 00:28:04,VALID,1000.17,VALID,0,VALID,91.7004,VALID,0,VALID,23.9531,VALID,48,VALID,0.415234,
2012-03-18, 00:29:04,VALID,1000.18,VALID,0,VALID,91.7004,VALID,0,VALID,23.9744,VALID,48,VALID,0.412109,
2012-03-18, 00:30:04,VALID,1000.15,VALID,0,VALID,91.6699,VALID,0,VALID,23.9336,VALID,48,VALID,0.480859,
2012-03-18, 00:31:04,VALID,1000.14,VALID,0,VALID,91.7233,VALID,0,VALID,23.9531,VALID,53,VALID,0.610937,
2012-03-18, 00:32:04,VALID,1000.11,VALID,0,VALID,91.7462,VALID,0,VALID,23.9531,VALID,53,VALID,0.601563,
2012-03-18, 00:33:04,VALID,1000.1,VALID,0,VALID,91.7233,VALID,0,VALID,23.9726,VALID,53,VALID,0.70625,
2012-03-18, 00:34:04,VALID,1000.09,VALID,0,VALID,91.7233,VALID,0,VALID,23.9726,VALID,53,VALID,0.623047,
2012-03-18, 00:35:04,VALID,1000.07,VALID,0,VALID,91.7157,VALID,0,VALID,24.0134,VALID,54,VALID,0.689844,
2012-03-18, 00:36:04,VALID,1000.09,VALID,0,VALID,91.647,VALID,0.104696,VALID,24.0134,VALID,94,VALID,0.734766,
2012-03-18, 00:37:04,VALID,1000.08,VALID,0,VALID,91.5631,VALID,0,VALID,23.9726,VALID,104,VALID,0.925,
2012-03-18, 00:38:04,VALID,1000.08,VALID,0,VALID,91.5554,VALID,0,VALID,24.0116,VALID,165,VALID,1.21055,
2012-03-18, 00:39:04,VALID,1000.05,VALID,0,VALID,91.5478,VALID,0,VALID,24.0329,VALID,171,VALID,1.20391,
2012-03-18, 00:40:04,VALID,1000.04,VALID,0,VALID,91.502,VALID,0,VALID,24.0311,VALID,180,VALID,1.22852,
2012-03-18, 00:41:04,VALID,999.959,VALID,0,VALID,91.38,VALID,0,VALID,24.0311,VALID,178,VALID,1.07891,
2012-03-18, 00:42:04,VALID,999.974,VALID,0,VALID,91.2426,VALID,0,VALID,24.0506,VALID,178,VALID,0.932422,
2012-03-18, 00:43:04,VALID,999.92,VALID,0,VALID,91.0824,VALID,0,VALID,24.0506,VALID,180,VALID,1.09141,
2012-03-18, 00:44:04,VALID,999.899,VALID,0,VALID,90.884,VALID,0,VALID,24.0915,VALID,185,VALID,0.796094,
2012-03-18, 00:45:04,VALID,999.911,VALID,0,VALID,90.7391,VALID,0,VALID,24.0701,VALID,161,VALID,1.10508,
2012-03-18, 00:46:04,VALID,999.932,VALID,0,VALID,90.5941,VALID,0,VALID,24.111,VALID,160,VALID,1.04453,
2012-03-18, 00:47:04,VALID,999.914,VALID,0,VALID,90.4415,VALID,0,VALID,24.0897,VALID,160,VALID,1.06523,
2012-03-18, 00:48:04,VALID,999.912,VALID,0,VALID,90.4415,VALID,0,VALID,24.1092,VALID,160,VALID,0.826563,
2012-03-18, 00:49:04,VALID,999.923,VALID,0,VALID,90.35,VALID,0,VALID,24.111,VALID,160,VALID,0.76875,
2012-03-18, 00:50:04,VALID,999.878,VALID,0,VALID,90.3271,VALID,0,VALID,24.0701,VALID,160,VALID,0.749609,
2012-03-18, 00:51:04,VALID,999.87,VALID,0,VALID,90.4186,VALID,0,VALID,24.0701,VALID,160,VALID,0.628516,
2012-03-18, 00:52:04,VALID,999.83,VALID,0,VALID,90.4949,VALID,0,VALID,24.0506,VALID,160,VALID,0.614453,
2012-03-18, 00:53:04,VALID,999.858,VALID,0,VALID,90.6017,VALID,0,VALID,24.072,VALID,160,VALID,0.630078,
2012-03-18, 00:54:04,VALID,999.834,VALID,0,VALID,90.7543,VALID,0,VALID,24.072,VALID,160,VALID,0.467187,
2012-03-18, 00:55:04,VALID,999.8,VALID,0,VALID,90.7696,VALID,0,VALID,24.072,VALID,160,VALID,0.308594,
2012-03-18, 00:56:04,VALID,999.82,VALID,0,VALID,90.8306,VALID,0,VALID,24.0116,VALID,160,VALID,0.355859,
2012-03-18, 00:57:04,VALID,999.775,VALID,0,VALID,90.8917,VALID,0,VALID,24.0329,VALID,160,VALID,0.446484,
2012-03-18, 00:58:04,VALID,999.781,VALID,0,VALID,90.9832,VALID,0,VALID,24.0329,VALID,160,VALID,0.775,
2012-03-18, 00:59:04,VALID,999.746,VALID,0,VALID,91.029,VALID,0,VALID,24.0116,VALID,129,VALID,0.911719,
2012-03-18, 01:00:04,VALID,999.752,VALID,0,VALID,91.1434,VALID,0,VALID,24.0134,VALID,129,VALID,0.885938,
2012-03-18, 01:01:04,VALID,999.724,VALID,0,VALID,91.0977,VALID,0,VALID,24.0116,VALID,129,VALID,0.871875,
2012-03-18, 01:02:04,VALID,999.72,VALID,0,VALID,91.0366,VALID,0,VALID,23.9939,VALID,127,VALID,1.00547,
2012-03-18, 01:03:04,VALID,999.687,VALID,0,VALID,91.0443,VALID,0,VALID,23.9744,VALID,127,VALID,0.94375,
2012-03-18, 01:04:04,VALID,999.649,VALID,0,VALID,91.0366,VALID,0,VALID,23.9336,VALID,127,VALID,0.826953,
2012-03-18, 01:05:04,VALID,999.647,VALID,0,VALID,91.1968,VALID,0,VALID,23.9354,VALID,127,VALID,0.698047,
2012-03-18, 01:06:04,VALID,999.616,VALID,0,VALID,91.2655,VALID,0,VALID,23.9354,VALID,127,VALID,0.637891,
2012-03-18, 01:07:04,VALID,999.613,VALID,0,VALID,91.2884,VALID,0,VALID,23.9354,VALID,127,VALID,0.484375,
2012-03-18, 01:08:04,VALID,999.616,VALID,0,VALID,91.3571,VALID,0,VALID,23.875,VALID,125,VALID,0.626953,
2012-03-18, 01:09:04,VALID,999.584,VALID,0,VALID,91.4334,VALID,0,VALID,23.875,VALID,122,VALID,0.679688,
2012-03-18, 01:10:04,VALID,999.579,VALID,0,VALID,91.4944,VALID,0,VALID,23.8963,VALID,122,VALID,0.501562,
2012-03-18, 01:11:04,VALID,999.566,VALID,0,VALID,91.5478,VALID,0,VALID,23.875,VALID,122,VALID,0.685547,
2012-03-18, 01:12:04,VALID,999.568,VALID,0,VALID,91.6165,VALID,0,VALID,23.8555,VALID,122,VALID,0.60625,
2012-03-18, 01:13:04,VALID,999.592,VALID,0,VALID,91.6394,VALID,0,VALID,23.8573,VALID,122,VALID,0.616016,
2012-03-18, 01:14:04,VALID,999.582,VALID,0,VALID,91.6317,VALID,0,VALID,23.836,VALID,122,VALID,0.624609,
2012-03-18, 01:15:04,VALID,999.605,VALID,0,VALID,91.6394,VALID,0,VALID,23.8165,VALID,122,VALID,0.500781,
2012-03-18, 01:16:04,VALID,999.586,VALID,0,VALID,91.6851,VALID,0,VALID,23.8165,VALID,122,VALID,0.498047,
2012-03-18, 01:17:04,VALID,999.602,VALID,0,VALID,91.7614,VALID,0,VALID,23.8573,VALID,122,VALID,0.604688,
2012-03-18, 01:18:04,VALID,999.582,VALID,0,VALID,91.7614,VALID,0,VALID,23.8378,VALID,122,VALID,0.669531,
2012-03-18, 01:19:04,VALID,999.578,VALID,0,VALID,91.6928,VALID,0,VALID,23.8165,VALID,122,VALID,0.651563,
2012-03-18, 01:20:05,VALID,999.535,VALID,0,VALID,91.6546,VALID,0,VALID,23.8165,VALID,115,VALID,0.772266,
2012-03-18, 01:21:05,VALID,999.525,VALID,0,VALID,91.6241,VALID,0,VALID,23.8378,VALID,100,VALID,0.884766,
2012-03-18, 01:22:05,VALID,999.561,VALID,0,VALID,91.5707,VALID,0,VALID,23.8165,VALID,99,VALID,0.794922,
2012-03-18, 01:23:05,VALID,999.527,VALID,0,VALID,91.4944,VALID,0,VALID,23.8183,VALID,95,VALID,0.664063,
2012-03-18, 01:24:05,VALID,999.535,VALID,0,VALID,91.4868,VALID,0.104696,VALID,23.7775,VALID,94,VALID,1.02227,
2012-03-18, 01:25:05,VALID,999.523,VALID,0,VALID,91.5173,VALID,0,VALID,23.7988,VALID,78,VALID,0.928516,
2012-03-18, 01:26:05,VALID,999.482,VALID,0,VALID,91.4868,VALID,0,VALID,23.7597,VALID,86,VALID,0.983594,
2012-03-18, 01:27:05,VALID,999.487,VALID,0,VALID,91.4639,VALID,0,VALID,23.7579,VALID,78,VALID,0.982813,
2012-03-18, 01:28:05,VALID,999.502,VALID,0,VALID,91.4105,VALID,0,VALID,23.7597,VALID,79,VALID,0.783594,
2012-03-18, 01:29:05,VALID,999.483,VALID,0,VALID,91.4028,VALID,0,VALID,23.7597,VALID,84,VALID,0.552344,
2012-03-18, 01:30:05,VALID,999.483,VALID,0,VALID,91.3876,VALID,0,VALID,23.7597,VALID,84,VALID,0.217969,
2012-03-18, 01:31:05,VALID,999.488,VALID,0,VALID,91.4181,VALID,0,VALID,23.7384,VALID,93,VALID,0.785156,
2012-03-18, 01:32:05,VALID,999.475,VALID,0,VALID,91.4028,VALID,0,VALID,23.7402,VALID,98,VALID,0.567969,
2012-03-18, 01:33:05,VALID,999.488,VALID,0,VALID,91.38,VALID,0,VALID,23.7189,VALID,98,VALID,0.460156,
2012-03-18, 01:34:05,VALID,999.475,VALID,0,VALID,91.3723,VALID,0,VALID,23.7189,VALID,98,VALID,0.379297,
2012-03-18, 01:35:05,VALID,999.444,VALID,0,VALID,91.3647,VALID,0,VALID,23.7207,VALID,96,VALID,0.764844,
2012-03-18, 01:36:05,VALID,999.433,VALID,0,VALID,91.3418,VALID,0,VALID,23.7207,VALID,95,VALID,0.199609,
2012-03-18, 01:37:05,VALID,999.441,VALID,0,VALID,91.3418,VALID,0,VALID,23.7402,VALID,95,VALID,0.658203,
2012-03-18, 01:38:05,VALID,999.44,VALID,0,VALID,91.3571,VALID,0,VALID,23.7207,VALID,95,VALID,0.423438,
2012-03-18, 01:39:05,VALID,999.395,VALID,0,VALID,91.3571,VALID,0,VALID,23.7189,VALID,95,VALID,0.3625,
2012-03-18, 01:40:05,VALID,999.43,VALID,0,VALID,91.4028,VALID,0,VALID,23.7207,VALID,95,VALID,0.564844,
2012-03-18, 01:41:05,VALID,999.376,VALID,0,VALID,91.4257,VALID,0,VALID,23.7207,VALID,95,VALID,0.543359,
2012-03-18, 01:42:05,VALID,999.392,VALID,0,VALID,91.4486,VALID,0,VALID,23.7207,VALID,95,VALID,0.110547,
2012-03-18, 01:43:05,VALID,999.392,VALID,0,VALID,91.4105,VALID,0,VALID,23.7012,VALID,95,VALID,0.08125,
2012-03-18, 01:44:05,VALID,999.381,VALID,0,VALID,91.4639,VALID,0,VALID,23.7012,VALID,95,VALID,0,
2012-03-18, 01:45:05,VALID,999.358,VALID,0,VALID,91.4563,VALID,0,VALID,23.7012,VALID,95,VALID,0.166406,
2012-03-18, 01:46:05,VALID,999.344,VALID,0,VALID,91.4639,VALID,0,VALID,23.6817,VALID,95,VALID,0.173438,
2012-03-18, 01:47:05,VALID,999.329,VALID,0,VALID,91.4791,VALID,0,VALID,23.6817,VALID,95,VALID,0.278125,
2012-03-18, 01:48:05,VALID,999.352,VALID,0,VALID,91.647,VALID,0,VALID,23.6622,VALID,95,VALID,0.346484,
2012-03-18, 01:49:05,VALID,999.321,VALID,0,VALID,91.7309,VALID,0,VALID,23.6817,VALID,95,VALID,0.4,
2012-03-18, 01:50:05,VALID,999.301,VALID,0,VALID,91.8148,VALID,0,VALID,23.6817,VALID,95,VALID,0.425781,
2012-03-18, 01:51:05,VALID,999.318,VALID,0,VALID,91.9064,VALID,0,VALID,23.6817,VALID,67,VALID,0.406641,
2012-03-18, 01:52:05,VALID,999.329,VALID,0,VALID,91.8683,VALID,0,VALID,23.6817,VALID,67,VALID,0.227734,
2012-03-18, 01:53:05,VALID,999.307,VALID,0,VALID,91.8225,VALID,0,VALID,23.6622,VALID,67,VALID,0.0324219,
2012-03-18, 01:54:05,VALID,999.285,VALID,0,VALID,91.8988,VALID,0,VALID,23.6214,VALID,67,VALID,0.222656,
2012-03-18, 01:55:05,VALID,999.27,VALID,0,VALID,92.0132,VALID,0,VALID,23.6427,VALID,67,VALID,0.379687,
2012-03-18, 01:56:05,VALID,999.286,VALID,0,VALID,92.1582,VALID,0,VALID,23.6622,VALID,67,VALID,0.458203,
2012-03-18, 01:57:05,VALID,999.27,VALID,0,VALID,92.2345,VALID,0,VALID,23.6427,VALID,67,VALID,0.456641,
2012-03-18, 01:58:05,VALID,999.267,VALID,0,VALID,92.2345,VALID,0,VALID,23.6427,VALID,67,VALID,0.45,
2012-03-18, 01:59:05,VALID,999.231,VALID,0,VALID,92.2268,VALID,0,VALID,23.6232,VALID,67,VALID,0.679297,
2012-03-18, 02:00:05,VALID,999.221,VALID,0,VALID,92.2116,VALID,0,VALID,23.6036,VALID,67,VALID,0.725,
2012-03-18, 02:01:05,VALID,999.222,VALID,0,VALID,92.2574,VALID,0,VALID,23.5841,VALID,67,VALID,0.701172,
2012-03-18, 02:02:05,VALID,999.219,VALID,0,VALID,92.3489,VALID,0,VALID,23.5841,VALID,67,VALID,0.678516,
2012-03-18, 02:03:05,VALID,999.221,VALID,0,VALID,92.3947,VALID,0,VALID,23.5646,VALID,67,VALID,0.499609,
2012-03-18, 02:04:05,VALID,999.213,VALID,0,VALID,92.4481,VALID,0,VALID,23.5646,VALID,67,VALID,0.266797,
2012-03-18, 02:05:05,VALID,999.229,VALID,0,VALID,92.4557,VALID,0,VALID,23.5646,VALID,67,VALID,0.201562,
2012-03-18, 02:06:05,VALID,999.192,VALID,0,VALID,92.3947,VALID,0,VALID,23.5646,VALID,67,VALID,0.127734,
2012-03-18, 02:07:05,VALID,999.21,VALID,0,VALID,92.3413,VALID,0,VALID,23.5646,VALID,67,VALID,0.213281,
2012-03-18, 02:08:05,VALID,999.181,VALID,0,VALID,92.3871,VALID,0,VALID,23.5646,VALID,67,VALID,0.0015625,
2012-03-18, 02:09:05,VALID,999.182,VALID,0,VALID,92.3947,VALID,0,VALID,23.5451,VALID,67,VALID,0.189844,
2012-03-18, 02:10:05,VALID,999.15,VALID,0,VALID,92.4023,VALID,0,VALID,23.5451,VALID,67,VALID,0.278125,
2012-03-18, 02:11:05,VALID,999.134,VALID,0,VALID,92.3794,VALID,0,VALID,23.5256,VALID,67,VALID,0.161328,
2012-03-18, 02:12:05,VALID,999.115,VALID,0,VALID,92.3718,VALID,0,VALID,23.5061,VALID,67,VALID,0,
2012-03-18, 02:13:05,VALID,999.103,VALID,0,VALID,92.3413,VALID,0,VALID,23.5061,VALID,67,VALID,0,
2012-03-18, 02:14:05,VALID,999.071,VALID,0,VALID,92.3413,VALID,0,VALID,23.5079,VALID,67,VALID,0,
2012-03-18, 02:15:05,VALID,999.099,VALID,0,VALID,92.3108,VALID,0,VALID,23.4866,VALID,67,VALID,0,
2012-03-18, 02:16:05,VALID,999.096,VALID,0,VALID,92.2726,VALID,0,VALID,23.4475,VALID,67,VALID,0,
2012-03-18, 02:17:05,VALID,999.085,VALID,0,VALID,92.4176,VALID,0,VALID,23.4671,VALID,67,VALID,0.417188,
2012-03-18, 02:18:05,VALID,999.067,VALID,0,VALID,92.5702,VALID,0,VALID,23.4866,VALID,67,VALID,0.601953,
2012-03-18, 02:19:05,VALID,999.045,VALID,0,VALID,92.616,VALID,0,VALID,23.5061,VALID,67,VALID,0.757813,
2012-03-18, 02:20:05,VALID,999.036,VALID,0,VALID,92.5854,VALID,0,VALID,23.5256,VALID,67,VALID,1.00234,
2012-03-18, 02:21:05,VALID,999.06,VALID,0,VALID,92.5397,VALID,0,VALID,23.5646,VALID,77,VALID,1.07148,
2012-03-18, 02:22:05,VALID,999.068,VALID,0,VALID,92.3794,VALID,0,VALID,23.5841,VALID,77,VALID,1.03008,
2012-03-18, 02:23:05,VALID,999.068,VALID,0,VALID,92.2192,VALID,0,VALID,23.5841,VALID,77,VALID,0.817969,
2012-03-18, 02:24:05,VALID,999.054,VALID,0,VALID,92.1048,VALID,0,VALID,23.5646,VALID,73,VALID,1.01055,
2012-03-18, 02:25:05,VALID,999.031,VALID,0,VALID,92.1887,VALID,0,VALID,23.5238,VALID,73,VALID,0.786328,
2012-03-18, 02:26:05,VALID,999.032,VALID,0,VALID,92.326,VALID,0.104696,VALID,23.5451,VALID,73,VALID,0.576953,
2012-03-18, 02:27:05,VALID,998.998,VALID,0,VALID,92.41,VALID,0,VALID,23.5256,VALID,73,VALID,0.342187,
2012-03-18, 02:28:05,VALID,998.993,VALID,0,VALID,92.4939,VALID,0,VALID,23.5256,VALID,73,VALID,0.185156,
2012-03-18, 02:29:05,VALID,999,VALID,0,VALID,92.5473,VALID,0.104696,VALID,23.5043,VALID,73,VALID,0.223047,
2012-03-18, 02:30:05,VALID,998.99,VALID,0,VALID,92.5397,VALID,0,VALID,23.5061,VALID,73,VALID,0,
2012-03-18, 02:31:05,VALID,998.987,VALID,0,VALID,92.532,VALID,0,VALID,23.4866,VALID,73,VALID,0,
2012-03-18, 02:32:05,VALID,998.983,VALID,0,VALID,92.5091,VALID,0,VALID,23.4671,VALID,73,VALID,0.00234375,
2012-03-18, 02:33:05,VALID,998.962,VALID,0,VALID,92.5473,VALID,0.104696,VALID,23.4653,VALID,73,VALID,0.180469,
2012-03-18, 02:34:05,VALID,998.958,VALID,0,VALID,92.5473,VALID,0.104696,VALID,23.4458,VALID,73,VALID,0.285937,
2012-03-18, 02:35:05,VALID,998.919,VALID,0,VALID,92.6007,VALID,0,VALID,23.4458,VALID,73,VALID,0.361328,
2012-03-18, 02:36:05,VALID,998.928,VALID,0,VALID,92.6617,VALID,0,VALID,23.4671,VALID,73,VALID,0.460938,
2012-03-18, 02:37:05,VALID,998.895,VALID,0,VALID,92.677,VALID,0,VALID,23.4671,VALID,73,VALID,0.506641,
2012-03-18, 02:38:05,VALID,998.883,VALID,0,VALID,92.6846,VALID,0,VALID,23.4653,VALID,73,VALID,0.4875,
2012-03-18, 02:39:05,VALID,998.884,VALID,0,VALID,92.6846,VALID,0,VALID,23.4653,VALID,92,VALID,0.687891,
2012-03-18, 02:40:05,VALID,998.89,VALID,0,VALID,92.6923,VALID,0,VALID,23.4848,VALID,92,VALID,0.448828,
2012-03-18, 02:41:05,VALID,998.901,VALID,0,VALID,92.6312,VALID,0,VALID,23.5061,VALID,92,VALID,0.480859,
2012-03-18, 02:42:05,VALID,998.894,VALID,0,VALID,92.5931,VALID,0,VALID,23.5061,VALID,92,VALID,0.396875,
2012-03-18, 02:43:05,VALID,998.915,VALID,0,VALID,92.5244,VALID,0.104696,VALID,23.4653,VALID,92,VALID,0.648047,
2012-03-18, 02:44:05,VALID,998.919,VALID,0,VALID,92.5091,VALID,0,VALID,23.5043,VALID,92,VALID,0.469141,
2012-03-18, 02:45:05,VALID,998.918,VALID,0,VALID,92.471,VALID,0,VALID,23.5043,VALID,92,VALID,0.294922,
2012-03-18, 02:46:05,VALID,998.909,VALID,0,VALID,92.4939,VALID,0,VALID,23.5043,VALID,92,VALID,0.480078,
2012-03-18, 02:47:05,VALID,998.937,VALID,0,VALID,92.4557,VALID,0,VALID,23.5256,VALID,92,VALID,0.576563,
2012-03-18, 02:48:05,VALID,998.907,VALID,0,VALID,92.4557,VALID,0,VALID,23.5238,VALID,92,VALID,0.673437,
2012-03-18, 02:49:05,VALID,998.92,VALID,0,VALID,92.4481,VALID,0,VALID,23.5451,VALID,92,VALID,0.866797,
2012-03-18, 02:50:05,VALID,998.887,VALID,0,VALID,92.4863,VALID,0,VALID,23.5433,VALID,92,VALID,1.05703,
2012-03-18, 02:51:05,VALID,998.858,VALID,0,VALID,92.5244,VALID,0,VALID,23.5451,VALID,92,VALID,0.884375,
2012-03-18, 02:52:05,VALID,998.872,VALID,0,VALID,92.5473,VALID,0,VALID,23.5451,VALID,92,VALID,0.835547,
2012-03-18, 02:53:05,VALID,998.874,VALID,0,VALID,92.5626,VALID,0,VALID,23.5646,VALID,92,VALID,0.6625,
2012-03-18, 02:54:05,VALID,998.864,VALID,0,VALID,92.5397,VALID,0,VALID,23.5646,VALID,92,VALID,0.602734,
2012-03-18, 02:55:05,VALID,998.83,VALID,0,VALID,92.4405,VALID,0.104696,VALID,23.5433,VALID,92,VALID,0.5875,
2012-03-18, 02:56:05,VALID,998.841,VALID,0,VALID,92.4328,VALID,0,VALID,23.5451,VALID,92,VALID,0.478906,
2012-03-18, 02:57:05,VALID,998.821,VALID,0,VALID,92.3642,VALID,0.104696,VALID,23.5238,VALID,92,VALID,0.292188,
2012-03-18, 02:58:05,VALID,998.852,VALID,0,VALID,92.3566,VALID,0.104696,VALID,23.5256,VALID,92,VALID,0.211719,
2012-03-18, 02:59:05,VALID,998.835,VALID,0,VALID,92.3413,VALID,0.104696,VALID,23.5043,VALID,92,VALID,0.36875,
2012-03-18, 03:00:05,VALID,998.834,VALID,0,VALID,92.3642,VALID,0.104696,VALID,23.5043,VALID,91,VALID,0.551953,
2012-03-18, 03:01:05,VALID,998.845,VALID,0,VALID,92.4405,VALID,0,VALID,23.4848,VALID,92,VALID,0.380859,
2012-03-18, 03:02:05,VALID,998.804,VALID,0,VALID,92.4939,VALID,0,VALID,23.5061,VALID,92,VALID,0.0277344,
2012-03-18, 03:03:05,VALID,998.773,VALID,0,VALID,92.5168,VALID,0,VALID,23.5061,VALID,92,VALID,0,
2012-03-18, 03:04:05,VALID,998.765,VALID,0,VALID,92.4405,VALID,0,VALID,23.4653,VALID,92,VALID,0.228906,
2012-03-18, 03:05:05,VALID,998.764,VALID,0,VALID,92.4405,VALID,0,VALID,23.4866,VALID,92,VALID,0.125781,
2012-03-18, 03:06:05,VALID,998.773,VALID,0,VALID,92.4328,VALID,0,VALID,23.4866,VALID,92,VALID,0.000390625,
2012-03-18, 03:07:05,VALID,998.767,VALID,0,VALID,92.4328,VALID,0,VALID,23.4458,VALID,92,VALID,0.115234,
2012-03-18, 03:08:05,VALID,998.78,VALID,0,VALID,92.4328,VALID,0.104696,VALID,23.4458,VALID,92,VALID,0.378516,
2012-03-18, 03:09:05,VALID,998.782,VALID,0,VALID,92.4252,VALID,0,VALID,23.4458,VALID,92,VALID,0.120703,
2012-03-18, 03:10:05,VALID,998.78,VALID,0,VALID,92.4405,VALID,0,VALID,23.4475,VALID,92,VALID,0.697266,
2012-03-18, 03:11:05,VALID,998.759,VALID,0,VALID,92.3947,VALID,0,VALID,23.4458,VALID,92,VALID,0.403906,
2012-03-18, 03:12:05,VALID,998.754,VALID,0,VALID,92.3337,VALID,0,VALID,23.4671,VALID,92,VALID,0.00234375,
2012-03-18, 03:13:05,VALID,998.763,VALID,0,VALID,92.2879,VALID,0,VALID,23.4671,VALID,92,VALID,0.177344,
2012-03-18, 03:14:05,VALID,998.761,VALID,0,VALID,92.2421,VALID,0,VALID,23.4458,VALID,92,VALID,0,
2012-03-18, 03:15:05,VALID,998.745,VALID,0,VALID,92.1887,VALID,0.104696,VALID,23.4475,VALID,92,VALID,0,
2012-03-18, 03:16:05,VALID,998.782,VALID,0,VALID,92.2116,VALID,0,VALID,23.4067,VALID,92,VALID,0,
2012-03-18, 03:17:05,VALID,998.764,VALID,0,VALID,92.2116,VALID,0,VALID,23.4475,VALID,92,VALID,0,
2012-03-18, 03:18:05,VALID,998.763,VALID,0,VALID,92.265,VALID,0,VALID,23.4067,VALID,92,VALID,0,
2012-03-18, 03:19:05,VALID,998.767,VALID,0,VALID,92.3413,VALID,0,VALID,23.428,VALID,92,VALID,0.358984,
2012-03-18, 03:20:05,VALID,998.772,VALID,0,VALID,92.3489,VALID,0,VALID,23.4688,VALID,92,VALID,0.514453,
2012-03-18, 03:21:05,VALID,998.791,VALID,0,VALID,92.3108,VALID,0,VALID,23.4475,VALID,92,VALID,0.46875,
2012-03-18, 03:22:05,VALID,998.811,VALID,0,VALID,92.204,VALID,0,VALID,23.4671,VALID,92,VALID,0.735156,
2012-03-18, 03:23:05,VALID,998.828,VALID,0,VALID,92.1353,VALID,0,VALID,23.4671,VALID,92,VALID,0.515234,
2012-03-18, 03:24:05,VALID,998.822,VALID,0,VALID,92.0285,VALID,0,VALID,23.4671,VALID,92,VALID,0.397266,
2012-03-18, 03:25:05,VALID,998.88,VALID,0,VALID,92.0514,VALID,0,VALID,23.4671,VALID,92,VALID,0.60625,
2012-03-18, 03:26:05,VALID,998.872,VALID,0,VALID,92.1582,VALID,0,VALID,23.4671,VALID,92,VALID,0.790234,
2012-03-18, 03:27:05,VALID,998.888,VALID,0,VALID,92.204,VALID,0,VALID,23.4866,VALID,92,VALID,0.783203,
2012-03-18, 03:28:05,VALID,998.89,VALID,0,VALID,92.2192,VALID,0,VALID,23.4866,VALID,92,VALID,0.475,
2012-03-18, 03:29:05,VALID,998.922,VALID,0,VALID,92.2116,VALID,0,VALID,23.4866,VALID,92,VALID,0.415234,
2012-03-18, 03:30:05,VALID,998.945,VALID,0,VALID,92.2116,VALID,0,VALID,23.4671,VALID,92,VALID,0.425391,
2012-03-18, 03:31:05,VALID,998.923,VALID,0,VALID,92.2268,VALID,0,VALID,23.4866,VALID,92,VALID,0.41875,
2012-03-18, 03:32:05,VALID,998.934,VALID,0,VALID,92.2574,VALID,0,VALID,23.4671,VALID,92,VALID,0.495703,
2012-03-18, 03:33:05,VALID,998.919,VALID,0,VALID,92.3108,VALID,0,VALID,23.4671,VALID,92,VALID,0.460547,
2012-03-18, 03:34:05,VALID,998.885,VALID,0,VALID,92.2879,VALID,0,VALID,23.4475,VALID,91,VALID,0.661719,
2012-03-18, 03:35:05,VALID,998.927,VALID,0,VALID,92.2726,VALID,0,VALID,23.4475,VALID,33,VALID,0.896094,
2012-03-18, 03:36:05,VALID,998.911,VALID,0,VALID,92.4405,VALID,0,VALID,23.4475,VALID,27,VALID,0.789844,
2012-03-18, 03:37:05,VALID,998.897,VALID,0,VALID,92.471,VALID,0,VALID,23.4085,VALID,27,VALID,0.653906,
2012-03-18, 03:38:05,VALID,998.911,VALID,0,VALID,92.5168,VALID,0,VALID,23.389,VALID,27,VALID,0.676172,
2012-03-18, 03:39:05,VALID,998.914,VALID,0,VALID,92.6465,VALID,0,VALID,23.4085,VALID,27,VALID,0.459766,
2012-03-18, 03:40:05,VALID,998.94,VALID,0,VALID,92.6694,VALID,0,VALID,23.389,VALID,27,VALID,0.599609,
2012-03-18, 03:41:05,VALID,998.923,VALID,0,VALID,92.6999,VALID,0,VALID,23.389,VALID,27,VALID,0.479688,
2012-03-18, 03:42:05,VALID,998.943,VALID,0,VALID,92.6694,VALID,0,VALID,23.3695,VALID,27,VALID,0.396484,
2012-03-18, 03:43:05,VALID,998.962,VALID,0,VALID,92.6541,VALID,0,VALID,23.35,VALID,27,VALID,0.336328,
2012-03-18, 03:44:05,VALID,998.95,VALID,0,VALID,92.6846,VALID,0,VALID,23.3305,VALID,27,VALID,0.28125,
2012-03-18, 03:45:05,VALID,998.956,VALID,0,VALID,92.7533,VALID,0,VALID,23.3305,VALID,27,VALID,0.142969,
2012-03-18, 03:46:05,VALID,998.967,VALID,0,VALID,92.7762,VALID,0,VALID,23.3305,VALID,27,VALID,0,